Regional Weather Roundup
Issued by NWS

Home | Current Version | Previous Version | Text Only | Print | Product List | Glossary Off
Versions: 1 2 3 4 5 6 7 8 9 10 11 12 13 14 15 16 17 18 19 20 21 22 23 24 25 26 27 28 29 30 31 32 33 34 35 36 37 38 39 40 41 42 43 44 45 46 47 48 49 50

719
ASUS45 KBOI 100910
RWRID

IDAHO REGIONAL WEATHER ROUNDUP
NATIONAL WEATHER SERVICE BOISE ID
200 AM MST SUN DEC 10 2017

NOTE: "FAIR" INDICATES FEW OR NO CLOUDS BELOW 12000 FEET
WITH NO SIGNIFICANT WEATHER AND/OR OBSTRUCTIONS TO VISIBILITY

IDZ012-014-101000-
SOUTHWEST IDAHO


CITY           SKY/WX    TMP DP  RH WIND       PRES   REMARKS
BOISE          CLOUDY    28  21  75 CALM      30.72F
CALDWELL       CLOUDY    28  22  78 CALM      30.75F
MOUNTAIN HOME  CLOUDY    22  22 100 E6        30.71F WCI  15
$$

IDZ016-017-101000-
SOUTHCENTRAL IDAHO


CITY           SKY/WX    TMP DP  RH WIND       PRES   REMARKS
BURLEY         FOG       20  18  92 SE3       30.65S VSB 1/2
JEROME         FOG       21  17  84 E3        30.67S VSB 1/4
TWIN FALLS     FOG       20  19  96 E5        30.66S VSB 1/4 WCI  13
$$

IDZ019>023-101000-
SOUTHEAST IDAHO


CITY           SKY/WX    TMP DP  RH WIND       PRES   REMARKS
IDAHO FALLS    CLOUDY     6   4  91 N5        30.66S WCI  -3
POCATELLO      FOG       11   8  88 CALM      30.66S VSB 1/4
REXBURG        CLOUDY     8   5  87 NE3       30.65R
$$

IDZ006-010-011-018-031-032-101000-
CENTRAL IDAHO MOUNTAINS


CITY           SKY/WX    TMP DP  RH WIND       PRES   REMARKS
MCCALL         MOCLDY     7   3  84 CALM      30.58F FOG
HAILEY         CLEAR     19  14  79 N7        30.63S WCI  10
STANLEY          N/A     -1  -5  82 CALM      30.67F
SALMON         CLOUDY    17  14  88 E7        30.79S WCI   8
CHALLIS        CLEAR      7   4  87 CALM      30.70S
$$

IDZ002-004-006-007-026-101000-
NORTHERN IDAHO


CITY           SKY/WX    TMP DP  RH WIND       PRES   REMARKS
LEWISTON       CLOUDY    26  25  96 S3        30.69S
LOWELL           N/A     24  22  91 CALM      30.71F
COEUR D`ALENE  CLOUDY    28  24  85 NE3       30.65R
MULLAN PASS    CLEAR     36   8  31 SW6       30.49F WCI  31
$$




USA.gov is the U.S. government's official web portal to all federal, state and local government web resources and services.